Retour au catalogue

RISAT-2BR1

ActifScienceVLEO
NORAD 44857·PAYLOAD·🇮🇳 India

Lancé Dec 11, 2019 depuis Satish Dhawan Space Centre

Loading…

Prochains Passages (prochaines 24 heures)

TLE

FraisSource: Space-Track

Époque: Sep 14, 2026, 14:32 UTC

1 44857U 19089F   26257.60620828  .00001974  00000-0  15822-3 0  9991
2 44857  36.9611 301.2691 0012251 192.1085 167.9363 15.00862282370644

Suivez RISAT-2BR1 en temps réel avec AllMySat

Download on the App Store